EW8484 Weather Reports


Display with metric or nautical units.
time (UTC)temp
F
wind
direction
speed
MPH
gust
MPH
rain 1hr
in
rain 24hr
in
rain mn
in
humidity
%
barometer
mb
20260902230527 66 0.0 0.0 0.00 0.00 0.00 42 1022.0
20260902230027 67 0.0 0.0 0.00 0.00 0.00 42 1022.1
20260902225527 67 0.0 0.0 0.00 0.00 0.00 41 1022.1
20260902225027 67 0.0 0.0 0.00 0.00 0.00 42 1022.3
20260902224527 67 0.0 0.0 0.00 0.00 0.00 43 1022.3
20260902224027 68 0.0 0.0 0.00 0.00 0.00 44 1022.5
20260902223547 68 0.0 0.0 0.00 0.00 0.00 44 1022.5
20260902223027 68 0.0 0.0 0.00 0.00 0.00 44 1022.3
20260902222527 68 0.0 0.0 0.00 0.00 0.00 45 1022.4
20260902222047 68 0.0 0.0 0.00 0.00 0.00 45 1022.3
20260902221527 68 0.0 0.0 0.00 0.00 0.00 45 1022.4
20260902221027 68 0.0 0.0 0.00 0.00 0.00 44 1022.3
20260902220527 68 0.0 0.0 0.00 0.00 0.00 45 1022.3
20260902220027 68 0.0 0.0 0.00 0.00 0.00 45 1022.1
20260902215527 68 0.0 0.0 0.00 0.00 0.00 45 1022.3
20260902215027 68 0.0 0.0 0.00 0.00 0.00 43 1022.1
20260902214527 68 0.0 0.0 0.00 0.00 0.00 43 1022.2
20260902214047 68 0.0 0.0 0.00 0.00 0.00 43 1022.2
20260902213527 69 0.0 0.0 0.00 0.00 0.00 42 1022.2
20260902213027 69 0.0 0.0 0.00 0.00 0.00 42 1022.2
20260902212527 69 0.0 0.0 0.00 0.00 0.00 41 1022.2
20260902212027 69 0.0 0.0 0.00 0.00 0.00 39 1022.1
20260902211527 69 0.0 0.0 0.00 0.00 0.00 38 1022.1
20260902211027 70 0.0 0.0 0.00 0.00 0.00 39 1022.2
20260902210527 70 0.0 0.0 0.00 0.00 0.00 40 1022.1
20260902210027 70 0.0 0.0 0.00 0.00 0.00 40 1021.9
20260902205527 71 0.0 0.0 0.00 0.00 0.00 39 1021.9
20260902205047 71 0.0 0.0 0.00 0.00 0.00 38 1021.7
20260902204527 71 0.0 0.0 0.00 0.00 0.00 39 1021.5
20260902204027 71 0.0 0.0 0.00 0.00 0.00 38 1021.6
20260902203527 71 0.0 0.0 0.00 0.00 0.00 38 1021.8
20260902203027 71 0.0 0.0 0.00 0.00 0.00 38 1022.0
20260902202527 71 0.0 0.0 0.00 0.00 0.00 41 1022.0
20260902202027 71 0.0 0.0 0.00 0.00 0.00 40 1022.1
20260902201527 71 0.0 0.0 0.00 0.00 0.00 38 1022.3
20260902201027 71 0.0 0.0 0.00 0.00 0.00 38 1022.5
20260902200527 71 0.0 0.0 0.00 0.00 0.00 37 1022.6
20260902200027 71 0.0 0.0 0.00 0.00 0.00 38 1022.4
20260902195527 71 0.0 0.0 0.00 0.00 0.00 39 1022.5
20260902195027 71 0.0 0.0 0.00 0.00 0.00 39 1022.5
20260902194527 70 0.0 0.0 0.00 0.00 0.00 40 1022.6
20260902194027 71 0.0 0.0 0.00 0.00 0.00 42 1022.7
20260902193526 70 0.0 0.0 0.00 0.00 0.00 42 1022.7
20260902193027 70 0.0 0.0 0.00 0.00 0.00 44 1022.6
20260902192526 70 0.0 0.0 0.00 0.00 0.00 43 1022.6
20260902192026 70 0.0 0.0 0.00 0.00 0.00 43 1022.7
20260902191527 70 0.0 0.0 0.00 0.00 0.00 42 1022.6
20260902191027 70 0.0 0.0 0.00 0.00 0.00 40 1022.5
20260902190527 71 0.0 0.0 0.00 0.00 0.00 40 1022.7
20260902190047 72 0.0 0.0 0.00 0.01 0.00 38 1022.6
20260902185526 72 0.0 0.0 0.00 0.01 0.00 35 1022.6
20260902185026 73 0.0 0.0 0.00 0.01 0.00 36 1022.6
20260902184547 73 0.0 0.0 0.00 0.01 0.00 34 1022.7
20260902184026 73 0.0 0.0 0.00 0.02 0.00 34 1022.8
20260902183527 73 0.0 0.0 0.00 0.02 0.00 33 1022.7
20260902183027 72 0.0 0.0 0.00 0.02 0.00 34 1022.8
20260902182526 72 0.0 0.0 0.00 0.03 0.00 35 1022.9
20260902182026 72 0.0 2.0 0.00 0.03 0.00 33 1023.0
20260902181526 72 0.0 0.0 0.00 0.03 0.00 33 1023.0
20260902181026 72 0.0 0.0 0.00 0.04 0.00 33 1023.0
20260902180526 73 184 1.0 2.0 0.00 0.04 0.00 34 1023.1
20260902180027 73 0.0 2.0 0.00 0.04 0.00 33 1023.1
20260902175526 73 0.0 2.0 0.00 0.04 0.00 32 1023.1
20260902175026 73 0.0 2.0 0.00 0.04 0.00 34 1023.1
20260902174526 73 172 1.0 4.0 0.00 0.04 0.00 29 1023.1
20260902174027 73 161 1.0 2.0 0.00 0.04 0.00 32 1023.0
20260902173526 72 151 1.0 4.0 0.00 0.04 0.00 31 1023.0
20260902173026 72 111 1.0 4.0 0.00 0.04 0.00 32 1023.0
20260902172526 72 205 1.0 3.0 0.00 0.04 0.00 30 1022.9
20260902172026 72 300 1.0 4.0 0.00 0.04 0.00 30 1023.0
20260902171527 72 34 1.0 3.0 0.00 0.04 0.00 34 1022.9
20260902171046 72 132 1.0 2.0 0.00 0.04 0.00 29 1023.0
20260902170526 72 0.0 2.0 0.00 0.04 0.00 33 1022.9
20260902170047 71 134 1.0 3.0 0.00 0.04 0.00 33 1022.9
20260902165526 71 165 1.0 2.0 0.00 0.05 0.00 34 1022.9
20260902165026 71 161 1.0 4.0 0.00 0.05 0.00 32 1023.0
20260902164526 71 175 2.0 4.0 0.00 0.06 0.00 30 1023.3
20260902164026 71 103 1.0 4.0 0.00 0.09 0.00 32 1023.4
20260902163526 70 191 1.0 2.0 0.00 0.18 0.00 33 1023.3
20260902163027 70 147 1.0 3.0 0.00 0.26 0.00 33 1023.3
20260902162526 70 121 1.0 3.0 0.00 0.30 0.00 34 1023.3
20260902162046 70 0.0 2.0 0.00 0.31 0.00 34 1023.4
20260902161526 70 101 1.0 3.0 0.00 0.31 0.00 35 1023.5
20260902161026 70 142 1.0 4.0 0.00 0.32 0.00 35 1023.4
20260902160546 70 160 1.0 2.0 0.00 0.32 0.00 31 1023.5
20260902160026 70 154 1.0 3.0 0.00 0.32 0.00 32 1023.6
20260902155526 69 131 1.0 3.0 0.00 0.32 0.00 32 1023.6
20260902155026 69 0.0 1.0 0.00 0.32 0.00 34 1023.7
20260902154526 69 0.0 0.0 0.00 0.32 0.00 35 1023.5
20260902154106 69 0.0 0.0 0.00 0.32 0.00 37 1023.7
20260902153546 68 0.0 0.0 0.00 0.32 0.00 38 1023.7
20260902153026 67 0.0 0.0 0.00 0.32 0.00 39 1023.8
20260902152526 67 0.0 1.0 0.00 0.32 0.00 40 1023.9
20260902152026 67 0.0 2.0 0.00 0.32 0.00 39 1024.0
20260902151526 67 0.0 2.0 0.00 0.32 0.00 38 1023.9
20260902151026 67 0.0 3.0 0.00 0.32 0.00 38 1023.9
20260902150546 67 0.0 0.0 0.00 0.33 0.00 39 1024.0
20260902150046 67 0.0 0.0 0.00 0.33 0.00 39 1024.0
20260902145526 66 0.0 0.0 0.00 0.33 0.00 40 1023.9
20260902145026 66 0.0 0.0 0.00 0.33 0.00 39 1023.9
20260902144526 66 0.0 0.0 0.00 0.33 0.00 41 1023.9
20260902144026 66 0.0 0.0 0.00 0.34 0.00 42 1024.0
20260902143526 66 0.0 0.0 0.00 0.34 0.00 42 1024.0
20260902143026 66 0.0 0.0 0.00 0.34 0.00 42 1023.9
20260902142526 65 0.0 1.0 0.00 0.34 0.00 43 1023.8
20260902142026 65 0.0 2.0 0.00 0.35 0.00 43 1023.9
20260902141526 65 164 1.0 5.0 0.00 0.35 0.00 43 1023.9
20260902141026 64 162 1.0 3.0 0.00 0.35 0.00 43 1023.9
20260902140526 64 0.0 3.0 0.00 0.36 0.00 44 1023.7
20260902140026 64 0.0 2.0 0.00 0.36 0.00 44 1023.7
20260902135526 64 148 1.0 2.0 0.00 0.36 0.00 45 1023.6
20260902135046 64 0.0 2.0 0.00 0.36 0.00 45 1023.6
20260902134526 63 0.0 1.0 0.00 0.37 0.00 45 1023.5
20260902134126 63 0.0 1.0 0.00 0.37 0.00 45 1023.4
20260902133526 63 0.0 1.0 0.00 0.38 0.00 45 1023.4
20260902133026 63 0.0 2.0 0.00 0.38 0.00 45 1023.5
20260902132526 63 158 1.0 4.0 0.00 0.40 0.00 45 1023.3
20260902132046 63 0.0 2.0 0.00 0.41 0.00 45 1023.4
20260902131526 62 38 1.0 2.0 0.00 0.44 0.00 45 1023.3
20260902131026 62 0.0 1.0 0.00 0.48 0.00 45 1023.3
20260902130526 62 0.0 2.0 0.00 0.56 0.00 45 1023.3
20260902130026 62 15 1.0 3.0 0.00 0.63 0.00 45 1023.2
20260902125526 62 0.0 0.0 0.00 0.69 0.00 45 1023.2
20260902125026 62 0.0 0.0 0.00 0.70 0.00 45 1023.2
20260902124526 62 0.0 0.0 0.00 0.72 0.00 45 1023.2
20260902124026 62 0.0 0.0 0.00 0.76 0.00 45 1023.3
20260902123526 62 0.0 0.0 0.00 0.81 0.00 45 1023.3
20260902123026 61 0.0 2.0 0.00 0.92 0.00 45 1023.2
20260902122526 61 0.0 2.0 0.00 1.13 0.00 45 1023.2
20260902122026 61 0.0 0.0 0.00 1.27 0.00 46 1023.3
20260902121526 61 0.0 0.0 0.00 1.27 0.00 46 1023.4
20260902121025 61 0.0 0.0 0.00 1.27 0.00 46 1023.5
20260902120526 61 0.0 0.0 0.00 1.28 0.00 46 1023.3
20260902120046 61 0.0 0.0 0.00 1.28 0.00 46 1023.4
20260902115526 61 0.0 0.0 0.00 1.29 0.00 46 1023.5
20260902115026 61 0.0 0.0 0.00 1.33 0.00 46 1023.4
20260902114526 60 0.0 0.0 0.00 1.35 0.00 46 1023.5
20260902114026 60 0.0 0.0 0.00 1.37 0.00 46 1023.4
20260902113526 60 0.0 0.0 0.00 1.40 0.00 46 1023.5
20260902113026 60 0.0 0.0 0.00 1.43 0.00 46 1023.6
20260902112526 60 0.0 0.0 0.00 1.45 0.00 46 1023.5
20260902112026 60 0.0 0.0 0.00 1.46 0.00 46 1023.6
20260902111526 60 0.0 0.0 0.00 1.48 0.00 46 1023.6
20260902111025 60 0.0 0.0 0.00 1.51 0.00 46 1023.5
20260902110546 60 0.0 0.0 0.00 1.53 0.00 46 1023.5
20260902110025 60 0.0 0.0 0.00 1.54 0.00 46 1023.4
20260902105526 60 0.0 0.0 0.00 1.56 0.00 46 1023.4
20260902105026 60 0.0 0.0 0.00 1.56 0.00 46 1023.4
20260902104526 60 0.0 0.0 0.00 1.56 0.00 46 1023.2
20260902104046 60 0.0 0.0 0.00 1.56 0.00 46 1023.3
20260902103546 59 0.0 0.0 0.00 1.56 0.00 46 1023.2
20260902103026 59 0.0 0.0 0.00 1.56 0.00 46 1023.1
20260902102526 59 0.0 0.0 0.00 1.56 0.00 46 1022.9
20260902102046 59 0.0 0.0 0.00 1.56 0.00 46 1023.0
20260902101526 59 0.0 0.0 0.00 1.57 0.00 46 1023.1
20260902101026 59 0.0 0.0 0.00 1.57 0.00 46 1022.9
20260902100526 59 0.0 0.0 0.00 1.57 0.00 46 1023.0
20260902100026 59 0.0 0.0 0.00 1.58 0.00 46 1022.9
20260902095526 60 0.0 0.0 0.00 1.59 0.00 46 1022.8
20260902095025 60 0.0 0.0 0.00 1.59 0.00 46 1022.8
20260902094525 60 0.0 0.0 0.00 1.59 0.00 46 1022.8
20260902094025 60 0.0 0.0 0.00 1.60 0.00 46 1022.7
20260902093646 60 0.0 0.0 0.00 1.60 0.00 46 1022.7
20260902093026 60 0.0 0.0 0.00 1.60 0.00 46 1022.6
20260902092525 60 0.0 0.0 0.00 1.60 0.00 46 1022.6
20260902092025 60 0.0 0.0 0.00 1.60 0.00 46 1022.6
20260902091606 60 0.0 0.0 0.00 1.60 0.00 46 1022.4
20260902091025 60 0.0 0.0 0.00 1.60 0.00 46 1022.2
20260902090525 60 0.0 0.0 0.00 1.60 0.00 46 1022.4
20260902090026 59 0.0 0.0 0.00 1.60 0.00 46 1022.2
20260902085526 59 0.0 0.0 0.00 1.60 0.00 46 1022.2
20260902085025 59 0.0 0.0 0.00 1.60 0.00 46 1022.2
20260902084525 59 0.0 0.0 0.00 1.60 0.00 46 1022.2
20260902084025 59 0.0 0.0 0.00 1.60 0.00 46 1022.2
20260902083525 59 0.0 0.0 0.00 1.60 0.00 46 1022.0
20260902083025 59 0.0 0.0 0.00 1.60 0.00 46 1022.1
20260902082525 59 0.0 0.0 0.00 1.60 0.00 46 1022.1
20260902082025 59 0.0 0.0 0.00 1.60 0.00 46 1022.0
20260902081525 59 0.0 0.0 0.00 1.60 0.00 46 1022.1
20260902081025 59 0.0 0.0 0.00 1.60 0.00 46 1022.1
20260902080526 59 0.0 0.0 0.00 1.60 0.00 46 1022.2
20260902080025 59 0.0 0.0 0.00 1.60 0.00 46 1022.1
20260902075525 59 0.0 0.0 0.00 1.60 0.00 46 1022.2
20260902075025 59 0.0 0.0 0.00 1.60 0.00 46 1022.2
20260902074525 59 0.0 0.0 0.00 1.60 0.00 46 1022.2
20260902074025 59 0.0 0.0 0.00 1.60 0.00 46 1022.3
20260902073525 59 0.0 0.0 0.00 1.60 0.00 46 1022.4
20260902073045 59 0.0 0.0 0.00 1.60 0.00 46 1022.3
20260902072545 59 0.0 0.0 0.00 1.60 0.00 46 1022.1
20260902072025 59 0.0 0.0 0.00 1.60 0.00 46 1022.2
20260902071525 59 0.0 0.0 0.00 1.60 0.00 46 1022.3
20260902071025 59 0.0 0.0 0.00 1.60 0.00 46 1022.3
20260902070525 59 0.0 0.0 0.00 1.60 0.00 46 1022.3
20260902070026 59 0.0 0.0 0.00 1.60 0.00 46 1022.6
20260902065525 59 0.0 0.0 0.00 1.61 0.00 46 1022.6
20260902065025 59 0.0 0.0 0.00 1.61 0.00 46 1022.8
20260902064545 59 0.0 0.0 0.00 1.61 0.00 46 1022.6
20260902064025 59 0.0 0.0 0.00 1.61 0.00 46 1022.6
20260902063525 59 0.0 0.0 0.00 1.61 0.00 46 1022.6
20260902063027 59 0.0 0.0 0.00 1.61 0.00 45 1022.5
20260902062526 59 0.0 0.0 0.00 1.61 0.00 45 1022.3
20260902062027 59 0.0 0.0 0.00 1.61 0.00 46 1022.4
20260902061525 59 0.0 0.0 0.00 1.61 0.00 46 1022.4
20260902061027 59 0.0 0.0 0.00 1.61 0.00 46 1022.5
20260902060527 59 0.0 0.0 0.00 1.61 0.00 46 1022.4
20260902060107 59 0.0 0.0 0.00 1.61 0.00 46 1022.4
20260902055527 59 0.0 0.0 0.00 1.61 0.00 45 1022.4
20260902055047 60 0.0 0.0 0.00 1.61 0.00 45 1022.3
20260902054527 60 0.0 0.0 0.00 1.61 0.00 45 1022.3
20260902054027 60 0.0 0.0 0.00 1.61 0.00 46 1022.5
20260902053527 60 0.0 0.0 0.00 1.61 0.00 46 1022.4
20260902053027 60 0.0 0.0 0.00 1.61 0.00 45 1022.4
20260902052527 60 0.0 0.0 0.00 1.61 0.00 45 1022.3
20260902052027 60 0.0 0.0 0.00 1.61 0.00 45 1022.1
20260902051527 60 0.0 0.0 0.00 1.61 0.00 45 1022.1
20260902051027 60 0.0 0.0 0.00 1.61 0.00 45 1022.1
20260902050547 60 0.0 0.0 0.00 1.61 0.00 45 1022.2
20260902050027 60 0.0 0.0 0.00 1.61 0.00 45 1022.2
20260902045607 60 0.0 0.0 0.00 1.61 0.00 45 1022.2
20260902045027 60 0.0 0.0 0.00 1.61 0.00 45 1021.8
20260902044527 60 0.0 0.0 0.00 1.61 0.00 45 1021.6
20260902044027 60 0.0 0.0 0.00 1.61 0.00 45 1021.8
20260902043527 60 0.0 0.0 0.00 1.61 0.00 45 1021.7
20260902043027 60 0.0 0.0 0.00 1.61 0.00 45 1021.6
20260902042527 60 0.0 0.0 0.00 1.61 0.00 45 1021.7
20260902042027 60 0.0 0.0 0.00 1.61 0.00 45 1021.7
20260902041527 60 0.0 0.0 0.00 1.61 0.00 45 1021.7
20260902041027 60 0.0 0.0 0.00 1.61 0.00 45 1021.5
20260902040527 60 0.0 0.0 0.00 1.61 0.00 45 1021.4
20260902040027 60 0.0 0.0 0.00 1.61 1.61 45 1021.5
20260902035607 60 0.0 0.0 0.00 1.61 1.61 45 1021.5
20260902035027 60 0.0 0.0 0.00 1.61 1.61 45 1021.4
20260902034527 60 0.0 0.0 0.00 1.61 1.61 45 1021.4
20260902034027 60 0.0 0.0 0.00 1.61 1.61 45 1021.3
20260902033527 60 0.0 0.0 0.00 1.61 1.61 45 1021.2
20260902033027 60 0.0 0.0 0.00 1.61 1.61 45 1021.1
20260902032527 60 0.0 0.0 0.00 1.61 1.61 45 1020.9
20260902032027 60 0.0 0.0 0.00 1.61 1.61 45 1020.9
20260902031527 60 0.0 0.0 0.00 1.61 1.61 45 1020.8
20260902031027 60 0.0 0.0 0.00 1.61 1.61 45 1020.7
20260902030527 60 0.0 0.0 0.00 1.61 1.61 45 1020.7
20260902030027 60 0.0 0.0 0.00 1.61 1.61 45 1020.8
20260902025527 60 0.0 0.0 0.00 1.61 1.61 45 1020.9
20260902025047 60 0.0 0.0 0.00 1.61 1.61 45 1021.0
20260902024527 60 0.0 0.0 0.00 1.61 1.61 45 1020.9
20260902024027 60 0.0 0.0 0.00 1.61 1.61 45 1021.1
20260902023527 60 0.0 0.0 0.00 1.61 1.61 45 1021.1
20260902023027 60 0.0 0.0 0.00 1.61 1.61 45 1020.8
20260902022527 61 0.0 0.0 0.00 1.61 1.61 45 1020.7
20260902022027 61 0.0 0.0 0.00 1.61 1.61 45 1021.1
20260902021527 60 0.0 0.0 0.00 1.61 1.61 45 1021.1
20260902021027 60 0.0 0.0 0.00 1.61 1.61 45 1021.0
20260902020527 60 0.0 1.0 0.00 1.61 1.61 45 1021.0
20260902020027 60 74 1.0 2.0 0.00 1.61 1.61 45 1021.2
20260902015527 61 0.0 1.0 0.00 1.61 1.61 45 1021.0
20260902015027 61 0.0 0.0 0.00 1.61 1.61 45 1021.0
20260902014607 61 0.0 0.0 0.00 1.61 1.61 45 1020.9
20260902014027 61 0.0 0.0 0.00 1.61 1.61 45 1020.8
20260902013527 61 0.0 1.0 0.00 1.61 1.61 45 1020.9
20260902013027 61 0.0 0.0 0.00 1.61 1.61 45 1020.8
20260902012527 61 0.0 0.0 0.00 1.61 1.61 45 1020.7
20260902012027 61 0.0 1.0 0.00 1.61 1.61 45 1020.8
20260902011547 61 0.0 1.0 0.00 1.61 1.61 45 1020.7
20260902011027 61 0.0 2.0 0.00 1.61 1.61 45 1020.6
20260902010527 61 0.0 2.0 0.00 1.61 1.61 45 1020.5
20260902010027 61 0.0 3.0 0.00 1.61 1.61 45 1020.4
20260902005607 61 101 1.0 2.0 0.00 1.61 1.61 45 1020.6
20260902005027 61 140 1.0 5.0 0.00 1.61 1.61 45 1020.7
20260902004526 61 344 1.0 4.0 0.00 1.61 1.61 45 1020.9
20260902004027 61 75 1.0 2.0 0.00 1.61 1.61 45 1020.9
20260902003527 61 0.0 2.0 0.00 1.61 1.61 45 1020.4
20260902003026 61 353 1.0 4.0 0.00 1.61 1.61 45 1020.3
20260902002527 61 145 1.0 2.0 0.00 1.61 1.61 45 1020.1
20260902002027 61 118 1.0 3.0 0.00 1.61 1.61 45 1020.1
20260902001526 61 0.0 2.0 0.00 1.61 1.61 45 1020.0
20260902001047 61 0.0 2.0 0.00 1.61 1.61 45 1020.2
20260902000527 61 0.0 3.0 0.00 1.61 1.61 45 1020.2
20260902000028 61 0.0 4.0 0.00 1.61 1.61 45 1020.2
20260901235527 61 0.0 0.0 0.00 1.61 1.61 45 1020.2
20260901235026 61 0.0 0.0 0.00 1.61 1.61 45 1020.3
20260901234527 61 0.0 0.0 0.00 1.61 1.61 45 1020.1
20260901234027 61 0.0 0.0 0.00 1.61 1.61 45 1020.1
20260901233527 61 0.0 0.0 0.00 1.61 1.61 45 1020.1
20260901233027 61 0.0 0.0 0.00 1.61 1.61 45 1020.2
20260901232526 61 0.0 0.0 0.00 1.61 1.61 45 1020.1
20260901232027 61 0.0 1.0 0.00 1.61 1.61 45 1020.2
20260901231526 61 0.0 2.0 0.00 1.61 1.61 45 1020.2
20260901231026 61 0.0 1.0 0.00 1.61 1.61 45 1020.3